Powrót do katalogu

COSMOS 1579 COOLANT

LostLEO
NORAD 26647·DEBRIS·🇷🇺 Russia

Wystrzelony Jun 29, 1984 z Baikonur Cosmodrome

Loading…

Następne Przeloty (najbliższe 24 godziny)

TLE

NieaktualneSource: Space-Track

Epoka: Oct 15, 2016, 23:38 UTC

1 26647U 84069U   16289.98498189 -.00000039  00000-0  40649-4 0  9994
2 26647  65.0457 130.8566 0040840 167.9022 192.3089 13.90196295819450

Śledź COSMOS 1579 COOLANT w czasie rzeczywistym z AllMySat

Download on the App Store